This demonstration page uses our WeatherBlox Daily Observations layout. Learn more.

Left ArrowRight Arrow

34.16533, -84.80231

Hourly Observations for March 26, 2022

Temp ( °F °C ) Dew Point ( °F °C ) Humidity (%) Winds ( mph kmh ) Pressure ( in mb ) Visibility ( mi km ) Precip ( " mm )
12:15 am 00:15 Clear 46 8 39 4 76 76 W 5 7 30.01 1016 10 16 0.00 0.00
12:35 am 00:35 Clear 46 8 39 4 76 76 W 6 9 30.01 1016 10 16 0.00 0.00
12:55 am 00:55 Clear 46 8 39 4 76 76 W 5 7 30.01 1016 10 16 0.00 0.00
1:15 am 01:15 Clear 46 8 39 4 76 76 SW 5 7 30.00 1016 10 16 0.00 0.00
1:35 am 01:35 Clear 45 7 39 4 81 81 WSW 5 7 30.00 1016 10 16 0.00 0.00
1:55 am 01:55 Mostly Clear 45 7 39 4 81 81 Calm 29.99 1016 10 16 0.00 0.00
2:15 am 02:15 Mostly Clear 45 7 39 4 81 81 Calm 29.98 1015 10 16 0.00 0.00
2:35 am 02:35 Partly Cloudy 43 6 39 4 87 87 Calm 29.98 1015 10 16 0.00 0.00
2:55 am 02:55 Partly Cloudy 43 6 39 4 87 87 Calm 29.98 1015 10 16 0.00 0.00
3:15 am 03:15 Mostly Clear 41 5 39 4 93 93 W 3 6 29.97 1015 10 16 0.00 0.00
3:35 am 03:35 Clear 41 5 39 4 93 93 WSW 3 6 29.97 1015 10 16 0.00 0.00
3:55 am 03:55 Clear 41 5 39 4 93 93 W 3 6 29.96 1015 10 16 0.00 0.00
4:15 am 04:15 Clear 41 5 39 4 93 93 W 3 6 29.96 1015 10 16 0.00 0.00
4:35 am 04:35 Clear 41 5 39 4 93 93 W 3 6 29.96 1015 10 16 0.00 0.00
4:55 am 04:55 Clear 41 5 39 4 93 93 W 6 9 29.96 1015 10 16 0.00 0.00
5:15 am 05:15 Clear 41 5 37 3 87 87 WSW 6 9 29.95 1014 10 16 0.00 0.00
5:35 am 05:35 Clear 41 5 37 3 87 87 W 5 7 29.96 1015 10 16 0.00 0.00
5:55 am 05:55 Clear 41 5 37 3 87 87 W 6 9 29.96 1015 10 16 0.00 0.00
6:15 am 06:15 Clear 41 5 39 4 93 93 W 9 15 29.96 1015 10 16 0.00 0.00
6:35 am 06:35 Clear 43 6 39 4 87 87 W 9 15 29.97 1015 10 16 0.00 0.00
6:55 am 06:55 Clear 45 7 39 4 81 81 W 9 15 29.98 1015 10 16 0.00 0.00
7:15 am 07:15 undefined N/A N/A N/A undefined N/A N/A N/A 0.00 0.00
7:35 am 07:35 undefined N/A N/A N/A undefined N/A N/A N/A 0.00 0.00
7:55 am 07:55 undefined N/A N/A N/A undefined N/A N/A N/A 0.00 0.00
8:15 am 08:15 undefined N/A N/A N/A undefined N/A N/A N/A 0.00 0.00
8:40 am 08:40 undefined N/A N/A N/A undefined N/A N/A N/A 0.00 0.00
8:55 am 08:55 undefined N/A N/A N/A undefined N/A N/A N/A 0.00 0.00
9:35 am 09:35 undefined N/A N/A N/A undefined N/A N/A N/A 0.00 0.00
9:55 am 09:55 undefined N/A N/A N/A undefined N/A N/A N/A 0.00 0.00
10:15 am 10:15 undefined N/A N/A N/A undefined N/A N/A N/A 0.00 0.00
10:35 am 10:35 undefined N/A N/A N/A undefined N/A N/A N/A 0.00 0.00
10:55 am 10:55 undefined 52 11 25 -4 35 35 W 15 24 30.01 1016 N/A 0.00 0.00
11:15 am 11:15 undefined 54 12 25 -4 33 33 W 18 30 30.00 1016 10 16 0.00 0.00
11:35 am 11:35 Sunny 54 12 23 -5 30 30 W 20 31 30.00 1016 10 16 0.00 0.00
11:55 am 11:55 Sunny 55 13 23 -5 28 28 WNW 14 22 29.99 1016 10 16 0.00 0.00
12:15 pm 12:15 Sunny 55 13 21 -6 26 26 W 20 31 29.99 1016 10 16 0.00 0.00
12:35 pm 12:35 Sunny 57 14 21 -6 25 25 WNW 13 20 29.98 1015 10 16 0.00 0.00
12:55 pm 12:55 Sunny 57 14 21 -6 25 25 WNW 14 22 29.97 1015 10 16 0.00 0.00
1:15 pm 13:15 Sunny 59 15 21 -6 23 23 W 22 35 29.96 1014 10 16 0.00 0.00
1:35 pm 13:35 Sunny 59 15 21 -6 23 23 WSW 20 31 29.96 1014 10 16 0.00 0.00
1:55 pm 13:55 Sunny 59 15 19 -7 21 21 W 21 33 29.95 1014 10 16 0.00 0.00
2:15 pm 14:15 Sunny 61 16 21 -6 22 22 WSW 17 28 29.93 1014 10 16 0.00 0.00
2:35 pm 14:35 Sunny 61 16 18 -8 19 19 WSW 23 37 29.92 1013 10 16 0.00 0.00
2:55 pm 14:55 Sunny 61 16 19 -7 20 20 W 21 33 29.91 1013 10 16 0.00 0.00
3:15 pm 15:15 Sunny 61 16 19 -7 20 20 W 17 28 29.90 1013 10 16 0.00 0.00
3:35 pm 15:35 Sunny 63 17 21 -6 20 20 W 20 31 29.90 1013 10 16 0.00 0.00
3:55 pm 15:55 Sunny 63 17 19 -7 19 19 W 21 33 29.89 1012 10 16 0.00 0.00
4:15 pm 16:15 Sunny 63 17 18 -8 17 17 W 20 31 29.89 1012 10 16 0.00 0.00
4:35 pm 16:35 Sunny 63 17 19 -7 19 19 W 21 33 29.89 1012 10 16 0.00 0.00
4:55 pm 16:55 Sunny 63 17 19 -7 19 19 W 23 37 29.88 1012 10 16 0.00 0.00
5:15 pm 17:15 Sunny 63 17 18 -8 17 17 W 20 31 29.88 1012 10 16 0.00 0.00
5:35 pm 17:35 Sunny 63 17 18 -8 17 17 W 17 28 29.88 1012 10 16 0.00 0.00
5:55 pm 17:55 Sunny 63 17 16 -9 16 16 W 17 28 29.88 1012 10 16 0.00 0.00
6:15 pm 18:15 Sunny 61 16 16 -9 17 17 W 23 37 29.88 1012 10 16 0.00 0.00
6:35 pm 18:35 Sunny 63 17 18 -8 17 17 W 14 22 29.89 1012 10 16 0.00 0.00
6:55 pm 18:55 Sunny 61 16 16 -9 17 17 W 13 20 29.89 1012 10 16 0.00 0.00
7:15 pm 19:15 Sunny 61 16 16 -9 17 17 W 17 28 29.89 1012 10 16 0.00 0.00
7:35 pm 19:35 Sunny 59 15 16 -9 18 18 W 14 22 29.90 1012 10 16 0.00 0.00
7:55 pm 19:55 Sunny 59 15 16 -9 18 18 W 10 17 29.91 1013 10 16 0.00 0.00
8:15 pm 20:15 Clear 57 14 16 -9 20 20 W 9 15 29.91 1013 10 16 0.00 0.00
8:35 pm 20:35 Clear 57 14 16 -9 20 20 W 10 17 29.92 1013 10 16 0.00 0.00
8:55 pm 20:55 Clear 55 13 16 -9 21 21 W 7 11 29.93 1014 10 16 0.00 0.00
9:15 pm 21:15 Clear 55 13 18 -8 23 23 W 8 13 29.94 1014 10 16 0.00 0.00
9:35 pm 21:35 Clear 54 12 16 -9 22 22 W 8 13 29.95 1014 10 16 0.00 0.00
9:55 pm 21:55 Clear 54 12 14 -10 21 21 WSW 8 13 29.96 1015 10 16 0.00 0.00
10:15 pm 22:15 Clear 54 12 14 -10 21 21 W 7 11 29.97 1015 10 16 0.00 0.00
10:35 pm 22:35 Clear 54 12 14 -10 21 21 W 8 13 29.98 1015 10 16 0.00 0.00
10:55 pm 22:55 Clear 52 11 16 -9 24 24 W 8 13 30.00 1016 10 16 0.00 0.00
11:15 pm 23:15 Clear 52 11 18 -8 26 26 W 8 13 30.01 1016 10 16 0.00 0.00
11:35 pm 23:35 Clear 50 10 18 -8 28 28 W 8 13 30.02 1017 10 16 0.00 0.00
11:55 pm 23:55 Clear 50 10 18 -8 28 28 W 8 13 30.02 1017 10 16 0.00 0.00

Powered by AerisWeather